Location: Mason
(37.5237°N, 89.2543°W)
Time: 07:36:22
(UTC+00:00)

Cosmos 2298 Rocket - Visible Passes

Search period start: 26 June 2022 00:00
Search period end: 06 July 2022 00:00
Orbit: 775 x 784 km, 74.0° (Epoch: 25 June)

Date Brightness Start Highest point End Pass type
(mag) Time Alt. Az. Time Alt. Az. Time Alt. Az.
27 Jun 6.7 09:34:43 10° N 09:39:00 24° ENE 09:43:15 10° ESE visible
28 Jun 7.8 01:57:36 10° WNW 01:59:24 12° NW 02:01:13 10° NW visible
28 Jun 7.1 09:02:00 10° NNE 09:05:08 16° ENE 09:08:15 10° E visible
30 Jun 5.2 09:35:34 10° N 09:40:44 48° ENE 09:45:52 10° SE visible
01 Jul 6.0 09:02:19 10° N 09:07:01 30° ENE 09:11:41 10° SE visible
02 Jul 6.7 08:29:21 10° NNE 08:33:13 20° ENE 08:37:03 10° ESE visible
03 Jul 7.0 07:57:00 10° NNE 07:59:18 13° NE 08:01:36 10° E visible
03 Jul 4.0 09:36:55 10° NNW 09:42:16 80° WSW 09:47:35 10° SSE visible
04 Jul 4.5 09:03:22 10° NNW 09:08:41 64° ENE 09:13:56 10° SSE visible
05 Jul 5.4 08:30:01 10° N 08:35:01 39° ENE 08:39:58 10° SE visible
